STARLINK-31951 (59890 NORAD) Tracking and Keplerian Element Data

This shows tracking and keplerian element data for the satellite.

Feedback or suggestion? Click here.




ElementValue
Catalog59890
NameSTARLINK-31951
Epoch Orbit281
Epoch Day160.16667824
Epoch Year2024
RAAN174.382
Inclination43.0037
Eccentricity0.0001359
Argument of Perigee275.9826
Mean Anonmoly309.0321
Mean Motion15.79978839
Decay Rate-0.00991251
L11 59890U 24100F 24160.16667824 -.00991251 00000+0 -58023-2 0 9999
L22 59890 43.0037 174.3820 0001359 275.9826 309.0321 15.79978839 2817



Live tracking and technical data element details for STARLINK-31951 (NORAD 59890). STARLINK-31951 can be tracked NOW for your location showing map with azimuth and elevation plus other details from your city location.







IsCatalogInMostPopularTable: catalog: 59890, numindb: 7
Update: records affected: 1



GetName: 59890 STARLINK-31951

Hit Count: updated at: Thu, 25 Jul 2024 00:05:16 GMT